Regional Weather Roundup
Issued by NWS Charleston, SC

Current Version | Previous Version | Graphics & Text | Print | Product List | Glossary On
Versions: 1 2 3 4 5 6 7 8 9 10 11 12 13 14 15 16 17 18 19 20 21 22 23 24 25 26 27 28 29 30 31 32 33 34 35 36 37 38 39 40 41 42 43 44 45 46 47 48 49 50
000 ASUS42 KCHS 310827 RWRCHS REGIONAL WEATHER ROUNDUP NATIONAL WEATHER SERVICE CHARLESTON SC 400 AM EDT FRI JUL 31 2015 NOTE: "FAIR" INDICATES FEW OR NO CLOUDS BELOW 12,000 FEET WITH NO SIGNIFICANT WEATHER AND/OR OBSTRUCTIONS TO VISIBILITY. NOT ALL STATIONS ARE QUALITY CONTROLLED BY THE NATIONAL WEATHER SERVICE. USE DATA WITH CAUTION...ESPECIALLY DEWPOINT OBSERVATIONS. SCZ027-030-031-034>040-042>050-310900- ...SOUTHEAST SOUTH CAROLINA... CITY SKY/WX TMP DP RH WIND PRES REMARKS N CHARLESTON PTCLDY 79 73 82 SW7 29.88F WATERFRONT PRK N/A 81 75 82 SW5 29.85F MOUNT PLEASANT LGT RAIN 79 75 89 SW6 29.89R JOHNS ISLAND FAIR 81 75 83 W5 29.88S PINOPOLIS NOT AVBL MONCKS CORNER FAIR 79 72 78 SW5 29.88R SUMMERVILLE NOT AVBL BEAUFORT MCAS MOCLDY 79 76 90 SW6 29.88F BEAUFORT ARPT CLOUDY 79 77 94 SW6 29.88S HILTON HEAD IS MOCLDY 79 79 100 S5 29.91R FOG WALTERBORO SUNNY 79 73 83 W3 29.90S ALLENDALE FAIR 77 75 94 CALM 29.88F ...SOUTHERN MIDLANDS AND PEE DEE... CITY SKY/WX TMP DP RH WIND PRES REMARKS GEORGETOWN NOT AVBL KINGSTREE NOT AVBL ORANGEBURG CLEAR 76 73 91 CALM 29.89F BARNWELL FAIR 79 75 89 SW5 29.89F AIKEN FAIR 75 72 88 W3 29.94F MANNING CLOUDY 77 73 88 CALM 29.88S COLUMBIA PTCLDY 80 73 79 CALM 29.88F SUMTER PTCLDY 77 73 88 W1 29.87S FLORENCE PTCLDY 80 73 79 NW7 29.88S MYRTLE BEACH CLOUDY 81 72 74 W5 29.88S N MYRTLE BEACH PTCLDY 79 73 82 W5 29.86S $$ GAZ063-065-086>088-099>101-113>116-118-119-134>141-150-310900- ...SOUTHEAST GEORGIA... CITY SKY/WX TMP DP RH WIND PRES REMARKS SAVANNAH ARPT MOCLDY 79 75 87 CALM 29.90F HUNTER AAF MOCLDY 80 77 93 S3 29.88S FORT STEWART NOT AVBL STATESBORO PTCLDY 78 32 18 CALM 29.90R SYLVANIA MOSUNNY 78 77 96 CALM 29.90S CLAXTON FAIR 79 77 94 W3 29.90S ...CSRA...CENTRAL AND FAR SOUTHEAST GEORGIA... CITY SKY/WX TMP DP RH WIND PRES REMARKS THOMSON CLEAR 77 76 98 CALM 29.95S AUGUSTA-BUSH CLEAR 75 74 96 CALM 29.88F FOG AUGUSTA-DANIEL PTCLDY 80 73 79 NW6 29.91S SWAINSBORO FAIR N/A N/A N/A CALM 29.91S VIDALIA PTCLDY 79 75 89 W3 29.91S EASTMAN FAIR 76 76 100 CALM 29.93F HAZLEHURST FAIR 79 78 98 CALM 29.91S ALMA MOCLDY 77 76 96 SW3 29.92R FOG WAYCROSS PTCLDY 79 79 100 SW3 29.92R JESUP PTSUNNY 79 77 94 CALM 29.91S BAXLEY FAIR 79 77 94 CALM 29.91S BRUNSWICK MOCLDY 79 77 94 W5 29.92R SAINT SIMONS MOCLDY 78 76 93 SW10 29.89F $$ SCZ027-028-034-036>038-045-046-048>050-GAZ119-141-310900- ...LAKE AND SUPPLEMENTAL COASTAL OBSERVATIONS... STATION/POSITION TIME TEMP WIND PRES WAVE SWELL AIR SEA DIR/SP/G HT/PER HT/PER/DIR (UTC) (F) (DEG/KT/KT) (MB) (FT/S) (FT/S/D) UPR LAKE MARION NOT AVBL WINYAH BAY 0745 79 250/ 3 1010.0F LAKE MURRAY 0700 83 290/ 4/ 6 1011.9S ACE BASIN NERRS NOT AVBL FORT PULASKI 0800 80 87 250/ 6/ 7 1012.7S SAPELO ISLAND 0800 80 240/ 7 1013.0S $$ ANZ835-935-AMZ111-154-330-350-352-354-370-450-454-472-310900- ...C-MAN AND BUOY OBSERVATIONS... STATION/POSITION TIME TEMP WIND PRES WAVE SWELL AIR SEA DIR/SP/G HT/PER HT/PER/DIR (UTC) (F) (DEG/KT/KT) (MB) (FT/S) (FT/S/D) BUOY 41004 0750 82 84 260/ 19/ 21 1011.2F 3/ 4 2/ 9 BUOY 41008 0750 83 83 260/ 10/ 12 1012.7F 2/ 7 2/100/ 7 FOLLY BEACH CMAN 0800 81 240/ 8/ 12 1012.2F CAPERS NEARSHORE 0708 83 250/ 17/ 23 1012.4F FRIPP NEARSHORE 0700 83 250/ 16/ 17 1011.7F STATION/POSITION TIME TEMP WIND PRES WAVE SWELL AIR SEA DIR/SP/G HT/PER HT/PER/DIR (UTC) (F) (DEG/KT/KT) (MB) (FT/S) (FT/S/D) 5E ST. MARYS GA 0721 84 N/A 2/ 7 FRYING PAN BUOY 0750 84 84 250/ 8/ 10 1011.6F 3/ 7 3/130/ 7 BUOY 41025 0750 83 85 180/ 8/ 10 1011.4F 5/ 7 5/150/ 7 CAPE LOOKOUT NC 0800 80 310/ 2/ 3 1010.8F BUOY 41002 0750 80 81 220/ 21/ 25 1012.9F 12/ 9 BUOY 41010 0720 83 84 230/ 14/ 16 1014.8F ST AUGUSTINE FL 0800 75 81 230/ 6/ 8 1014.2F $$

USA.gov is the U.S. government's official web portal to all federal, state and local government web resources and services.